Regional Weather Roundup
Issued by NWS

Home | Current Version | Previous Version | Graphics & Text | Print | Product List | Glossary On
Versions: 1 2 3 4 5 6 7 8 9 10 11 12 13 14 15 16 17 18 19 20 21 22 23 24 25 26 27 28 29 30 31 32 33 34 35 36 37 38 39 40 41 42 43 44 45 46 47 48 49 50
513
ASUS43 KLOT 211312
RWRIL

ILLINOIS REGIONAL WEATHER ROUNDUP
NATIONAL WEATHER SERVICE CHICAGO/ROMEOVILLE IL
700 AM CST TUE FEB 21 2017

NOTE: "FAIR" INDICATES FEW OR NO CLOUDS BELOW 12,000 FEET WITH NO
SIGNIFICANT WEATHER AND/OR OBSTRUCTIONS TO VISIBILITY.

* THESE STATIONS ARE NOT UNDER NWS QUALITY CONTROL. THEY ALSO MAY NOT
  REPORT WEATHER SUCH AS PRECIPITATION OR FOG.

ILZ001-002-007-009-015-016-024-211400-
NORTHWEST ILLINOIS

CITY           SKY/WX    TMP DP  RH WIND       PRES   REMARKS
MOLINE         CLOUDY    49  44  83 CALM      29.94F
STERLING*      CLOUDY    53  51  93 NW5       29.94S
SAVANNA*       CLOUDY    46  45  97 NW3       29.94S
$$

ILZ003-004-008-010-011-017-018-211400-
NORTH CENTRAL ILLINOIS

CITY           SKY/WX    TMP DP  RH WIND       PRES   REMARKS
ROCKFORD       CLOUDY    52  48  86 NW6       29.93S
FREEPORT*      MOCLDY    45  43  93 W6        29.95S
ROCHELLE*      CLOUDY    53  52  99 W3        29.93F FOG
DE KALB*       CLOUDY    54  53  97 W7        29.93R FOG
PERU*          CLOUDY    53  52  97 SW5       29.94R FOG
$$

ILZ005-006-012>014-019>023-211400-
NORTHEAST ILLINOIS

CITY           SKY/WX    TMP DP  RH WIND       PRES   REMARKS
CHICAGO-OHARE  LGT RAIN  55  52  89 SW3       29.92R FOG
CHICAGO-MIDWAY LGT RAIN  54  51  90 S7        29.93R FOG
AURORA         CLOUDY    54  52  93 SW6       29.94R FOG
LANSING*       LGT RAIN  52  51  99 S6        29.95R
JOLIET*        LGT RAIN  55  54  99 S3        29.93F
WAUKEGAN       CLOUDY    54  52  93 SW7       29.90R FOG
DUPAGE AIRPORT CLOUDY    54  51  90 SW6       29.93R FOG
KANKAKEE*      LGT RAIN  52  51  97 CALM      29.96R
WHEELING       CLOUDY    54  52  93 S3        29.93R
MORRIS*        LGT RAIN  52  51  97 CALM      29.93F
ROMEOVILLE*    LGT RAIN  52  52 100 S5        29.93S
NORTHERLY ISL    N/A     54  51  90 S6          N/A
$$

LMZ740>746-211400-
SOUTHERN LAKE MICHIGAN

STATION/POSITION SKY/WX   TEMP    WIND        PRES    VSBY  WAVE
                          AIR SEA DIR/SP/G                  HT/PER
                          (F)     (DEG/KT/KT) (MB)    (MI)  (FT/S)
HARRISON CRIB              54     190/ 14/ 14   N/A
BURNHAM HARBOR             54     200/  7/ 10   N/A
CALUMET HARBOR             53     200/  7/ 10 1013.3R
BURNS HARBOR               54     180/  9/ 15 1014.6
MICHIGAN CITY              54     130/ 11/ 13   N/A
$$

ILZ025>027-034>036-040-047-049-050-058-095>099-211400-
WEST-CENTRAL ILLINOIS

CITY           SKY/WX    TMP DP  RH WIND       PRES   REMARKS
QUINCY         FOG       56  56 100 CALM      29.93R VSB 1/4
GALESBURG*     CLOUDY    52  52 100 N3        29.95R FOG
MACOMB*        CLOUDY    56  56 100 NW15      29.97R FOG
JACKSONVILLE*  DRZL/FOG  55  55 100 N3        29.94R VSB 1/2
PITTSFIELD*    FOG       56  56 100 E3        29.93F VSB 1/2
$$

ILZ028>032-037-038-041>044-048-051>054-059>061-211400-
CENTRAL ILLINOIS

CITY           SKY/WX    TMP DP  RH WIND       PRES   REMARKS
PONTIAC        RAIN      54  54  99 CALM      29.95S
BLOOMINGTON    RAIN      54  53  97 CALM      29.96R FOG
DECATUR        LGT RAIN  55  51  86 SE3       29.96R
PEORIA         CLOUDY    56  56 100 W5        29.95R FOG
LACON*         FOG       53  53 100 CALM      29.94R VSB 3/4
LINCOLN*       LGT RAIN  55  55 100 CALM      29.94R
SPRINGFIELD    LGT RAIN  57  56  96 NE6       29.95R FOG
TAYLORVILLE    DRIZZLE   55  55  99 CALM      29.96R
$$

ILZ033-039-045-046-055>057-062-063-211400-
EAST-CENTRAL ILLINOIS

CITY           SKY/WX    TMP DP  RH WIND       PRES   REMARKS
CHAMPAIGN      LGT RAIN  54  48  80 SE7       29.97R
RANTOUL*       CLOUDY    55  50  84 CALM      29.96S
MATTOON        CLOUDY    56  49  77 CALM      29.96R
PARIS*         CLOUDY    53  47  81 CALM      29.98S
$$

ILZ079-100>102-211400-
SOUTHWEST ILLINOIS

CITY           SKY/WX    TMP DP  RH WIND       PRES   REMARKS
ALTON          LGT RAIN  57  55  94 E7        29.93F FOG
BELLEVILLE     LGT RAIN  55  55 100 E3        29.92S
CAHOKIA*       LGT RAIN  58  57  97 CALM      29.91F FOG
SPARTA*        CLOUDY    55  53  93 SE3       29.94R
$$

ILZ064>066-069>071-074>076-080>082-084>086-088>090-092>094-211400-
SOUTH-CENTRAL ILLINOIS

CITY           SKY/WX    TMP DP  RH WIND       PRES   REMARKS
CARBONDALE     MOCLDY    56  51  84 E5        29.93S
CAIRO*         CLOUDY    55  51  86 E6        29.93S
EFFINGHAM*     CLOUDY    53  50  90 CALM      29.97S
MARION         PTCLDY    55  48  76 E5        29.95S
MT. VERNON     CLOUDY    55  50  83 CALM      29.96R
CENTRALIA*     CLOUDY    55  53  90 SE5       29.94R
SALEM*         LGT RAIN  57  51  81 CALM      29.94F
METROPOLIS*    MOCLDY    55  49  81 CALM      29.95S
$$

ILZ067-068-072-073-078-083-087-091-211400-
SOUTHEAST ILLINOIS

CITY           SKY/WX    TMP DP  RH WIND       PRES   REMARKS
LAWRENCEVILLE  MOCLDY    52  46  80 W3        29.99R
FLORA*         LGT RAIN  55  51  86 E6        29.95F
FAIRFIELD*     CLOUDY    56  49  77 CALM      29.95R
HARRISBURG*    CLOUDY    54  51  88 E3        29.96S
ROBINSON*      CLOUDY    48  47  93 CALM      29.99R
CARMI*         CLOUDY    52  49  92 CALM      29.97R FOG
$$

ABBREVIATIONS USED IN REMARKS
   TC - TEMPERATURE IN CELSIUS
  WCI - WIND CHILL INDEX
   HX - HEAT INDEX
  VSB - VISIBILITY
$$





USA.gov is the U.S. government's official web portal to all federal, state and local government web resources and services.